Weather History for KMAI - December, 2012

Change the Weather History Date:

Tuesday, December 18, 2012

  Actual Average Record
Temperature  
Mean Temperature 55 °F 52 °F  
Max Temperature 69 °F 63 °F - ()
Min Temperature 41 °F 40 °F - ()
Degree Days  
Heating Degree Days 10    
Month to date heating degree days 90  
Since 1 July heating degree days 379  
Cooling Degree Days 0    
Month to date cooling degree days 8  
Year to date cooling degree days 2751  
Growing Degree Days 6 (Base 50)    
Moisture  
Dew Point 48 °F    
Average Humidity 64    
Maximum Humidity 100    
Minimum Humidity 28    
Precipitation  
Precipitation 0.00 in 0.12 in - ()
Month to date precipitation 1.38 2.42  
Year to date precipitation 57.25 52.09  
Sea Level Pressure  
Sea Level Pressure 29.96 in    
Wind  
Wind Speed 4 mph (WNW)    
Max Wind Speed 9 mph    
Max Gust Speed 17 mph    
Visibility 8 miles    
Events Fog    
T = Trace of Precipitation, MM = Missing Value Source: NWS Daily Summary

Daily Weather History Graph

Daily Weather History Graph

Search for Another Location

Airport or City:

Trip Planner

Search our weather history database for the weather conditions in past years. The results will help you decide how hot, cold, wet, or windy it might be!

Date:

Astronomy

Dec. 18, 2012 Rise Set
Actual Time 6:33 AM CST 4:42 PM CST
Civil Twilight 6:06 AM CST 5:08 PM CST
Nautical Twilight 5:36 AM CST 5:39 PM CST
Astronomical Twilight 5:06 AM CST 6:08 PM CST
Moon 10:33 AM CST (12/18) 10:44 PM CST (12/18)
Length of Visible Light 11h 02m
Length of Day
10h 09m
Waxing Crescent, 35% of the Moon is Illuminated
Dec 18
Waxing Crescent
Dec 19
First Quarter
Dec 28
Full
Jan 4
Last Quarter
Jan 11
New

Hourly Weather History & Observations

Time (CST) Temp. Dew Point Humidity Pressure Visibility Wind Dir Wind Speed Gust Speed Precip Events Conditions
12:31 AM 60.8 °F 59.0 °F 94% 29.83 in 9.0 mi SW 5.8 mph - N/A   Scattered Clouds
12:53 AM 60.1 °F 59.0 °F 96% 29.84 in 8.0 mi West 6.9 mph - N/A   Partly Cloudy
1:53 AM 59.0 °F 57.9 °F 96% 29.86 in 8.0 mi WSW 5.8 mph - N/A   Clear
2:53 AM 57.0 °F 57.0 °F 100% 29.86 in 7.0 mi WSW 5.8 mph - N/A   Partly Cloudy
3:34 AM 57.2 °F 57.2 °F 100% 29.87 in 7.0 mi West 6.9 mph - N/A   Mostly Cloudy
3:53 AM 57.0 °F 55.9 °F 96% 29.87 in 8.0 mi West 5.8 mph - N/A   Mostly Cloudy
4:53 AM 57.0 °F 55.0 °F 93% 29.90 in 9.0 mi WNW 4.6 mph - N/A   Mostly Cloudy
5:02 AM 55.4 °F 55.4 °F 100% 29.90 in 8.0 mi WNW 3.5 mph - N/A   Scattered Clouds
5:53 AM 54.0 °F 54.0 °F 100% 29.92 in 4.0 mi West 3.5 mph - N/A   Clear
6:08 AM 53.6 °F 53.6 °F 100% 29.93 in 1.0 mi Calm Calm - N/A   Mist
6:17 AM 53.6 °F 53.6 °F 100% 29.93 in 0.8 mi Calm Calm - N/A   Mist
6:53 AM 51.1 °F 51.1 °F 100% 29.95 in 0.2 mi West 3.5 mph - N/A Fog Fog
7:31 AM 53.6 °F 53.6 °F 100% 29.97 in 1.2 mi West 4.6 mph - N/A   Partly Cloudy
7:37 AM 53.6 °F 53.6 °F 100% 29.98 in 3.0 mi West 3.5 mph - N/A   Partly Cloudy
7:53 AM 55.0 °F 55.0 °F 100% 29.98 in 4.0 mi West 4.6 mph - N/A   Clear
8:53 AM 59.0 °F 54.0 °F 83% 30.00 in 10.0 mi NW 6.9 mph - N/A   Clear
9:53 AM 61.0 °F 48.9 °F 64% 30.02 in 10.0 mi NNW 6.9 mph - 0.01 in   Clear
10:53 AM 64.0 °F 44.1 °F 48% 30.01 in 10.0 mi North 6.9 mph - N/A   Clear
11:53 AM 66.0 °F 39.9 °F 38% 29.99 in 10.0 mi Variable 4.6 mph - N/A   Clear
12:53 PM 68.0 °F 37.0 °F 32% 29.98 in 10.0 mi NW 4.6 mph - N/A   Clear
1:53 PM 68.0 °F 35.1 °F 30% 29.97 in 10.0 mi NNW 4.6 mph - N/A   Clear
2:53 PM 69.1 °F 35.1 °F 29% 29.97 in 10.0 mi NW 5.8 mph - N/A   Clear
3:53 PM 68.0 °F 35.1 °F 30% 29.99 in 10.0 mi North 3.5 mph - N/A   Clear
4:53 PM 57.9 °F 45.0 °F 62% 29.99 in 10.0 mi Calm Calm - N/A   Clear
5:53 PM 52.0 °F 43.0 °F 71% 30.00 in 10.0 mi Calm Calm - N/A   Clear
6:53 PM 50.0 °F 44.1 °F 80% 30.01 in 10.0 mi Calm Calm - N/A   Clear
7:53 PM 46.9 °F 43.0 °F 86% 30.03 in 10.0 mi SSW 3.5 mph - N/A   Clear
8:53 PM 46.0 °F 42.1 °F 86% 30.04 in 10.0 mi Calm Calm - N/A   Clear
9:53 PM 44.1 °F 42.1 °F 93% 30.05 in 10.0 mi Calm Calm - N/A   Clear
10:53 PM 43.0 °F 39.9 °F 89% 30.05 in 10.0 mi Calm Calm - N/A   Clear
11:53 PM 41.0 °F 39.0 °F 93% 30.06 in 10.0 mi Calm Calm - N/A   Clear